Oskaloosa, IA

10:59 AM CDT on May 26, 2017 (GMT -0500)
Oskaloosa Municipal

Weather History for KOOA - November, 2012

Change the Weather History Date:

Sunday, November 11, 2012

  Actual Average (KOTM) Record (KOTM)
Temperature  
Mean Temperature 46 °F -  
Max Temperature 65 °F 47 °F 76 °F (1964)
Min Temperature 27 °F 31 °F 5 °F (1986)
Degree Days  
Heating Degree Days 19    
Moisture  
Dew Point 38 °F    
Average Humidity 82    
Maximum Humidity 94    
Minimum Humidity 59    
Precipitation  
Precipitation 1.11 in - - ()
Sea Level Pressure  
Sea Level Pressure 29.85 in    
Wind  
Wind Speed 16 mph (West)    
Max Wind Speed 25 mph    
Max Gust Speed 32 mph    
Visibility 8 miles    
Events Rain    
Averages and records for this station are not official NWS values.
T = Trace of Precipitation, MM = Missing Value Source: NWS Daily Summary

Daily Weather History Graph

Daily Weather History Graph

Search for Another Location

Airport or City:

Trip Planner

Search our weather history database for the weather conditions in past years. The results will help you decide how hot, cold, wet, or windy it might be!

Date:

Astronomy

Nov. 11, 2012 Rise Set
Actual Time 6:53 AM CST 4:53 PM CST
Civil Twilight 6:24 AM CST 5:23 PM CST
Nautical Twilight 5:51 AM CST 5:56 PM CST
Astronomical Twilight 5:18 AM CST 6:28 PM CST
Moon 4:07 AM CST (11/11) 3:18 PM CST (11/11)
Length of Visible Light 10h 58m
Length of Day
10h 00m
Waning Crescent, 7% of the Moon is Illuminated
Nov 11
Waning Crescent
Nov 13
New
Nov 20
First Quarter
Nov 28
Full
Dec 6
Last Quarter

Hourly Weather History & Observations

Time (CST) Temp. Windchill Dew Point Humidity Pressure Visibility Wind Dir Wind Speed Gust Speed Precip Events Conditions
12:15 AM 65.1 °F - 50.4 °F 59% 29.74 in 10.0 mi SSW 21.9 mph 27.6 mph N/A   Clear
12:35 AM 64.8 °F - 50.9 °F 61% 29.74 in 10.0 mi SSW 21.9 mph 26.5 mph N/A   Scattered Clouds
12:55 AM 64.8 °F - 51.1 °F 61% 29.74 in 10.0 mi South 18.4 mph 28.8 mph N/A   Overcast
1:15 AM 64.8 °F - 51.6 °F 62% 29.73 in 10.0 mi South 16.1 mph 23.0 mph N/A   Overcast
1:35 AM 64.6 °F - 52.0 °F 64% 29.74 in 10.0 mi South 15.0 mph 20.7 mph N/A   Overcast
1:55 AM 64.6 °F - 52.5 °F 65% 29.75 in 10.0 mi SSW 13.8 mph - N/A   Overcast
2:15 AM 64.4 °F - 52.7 °F 66% 29.75 in 10.0 mi South 13.8 mph - N/A   Overcast
2:35 AM 64.4 °F - 53.1 °F 67% 29.75 in 10.0 mi South 12.7 mph - N/A   Overcast
2:55 AM 63.9 °F - 53.8 °F 70% 29.76 in 10.0 mi SSW 13.8 mph - N/A Rain Light Rain
3:15 AM 64.4 °F - 53.6 °F 68% 29.75 in 10.0 mi SSW 10.4 mph - N/A   Overcast
3:35 AM 63.5 °F - 54.0 °F 71% 29.76 in 10.0 mi West 12.7 mph - N/A   Overcast
3:55 AM 62.6 °F - 54.9 °F 76% 29.73 in 10.0 mi South 10.4 mph - N/A   Overcast
4:15 AM 61.9 °F - 54.7 °F 77% 29.73 in 10.0 mi South 10.4 mph - N/A   Overcast
4:35 AM 61.7 °F - 55.2 °F 79% 29.71 in 10.0 mi SSE 11.5 mph - N/A Rain Light Rain
4:55 AM 61.7 °F - 55.4 °F 80% 29.71 in 10.0 mi South 11.5 mph - N/A   Overcast
5:35 AM 62.6 °F - 55.0 °F 76% 29.69 in 10.0 mi South 15.0 mph - N/A   Overcast
5:55 AM 62.2 °F - 55.6 °F 79% 29.68 in 10.0 mi SSE 16.1 mph - N/A   Overcast
6:15 AM 61.7 °F - 55.8 °F 81% 29.70 in 10.0 mi West 11.5 mph - N/A Rain Rain
6:35 AM 60.3 °F - 56.3 °F 87% 29.70 in 10.0 mi WNW 10.4 mph - 0.01 in Rain Rain
6:55 AM 59.0 °F - 56.3 °F 91% 29.70 in 4.0 mi WNW 6.9 mph - 0.12 in Rain Rain
7:35 AM 58.3 °F - 55.8 °F 91% 29.68 in 10.0 mi NW 6.9 mph - 0.02 in Rain Light Rain
7:55 AM 57.9 °F - 55.6 °F 92% 29.67 in 5.0 mi NW 9.2 mph - 0.04 in Rain Rain
8:15 AM 57.6 °F - 55.4 °F 92% 29.71 in 1.8 mi WSW 11.5 mph - 0.18 in Rain Heavy Rain
8:35 AM 57.6 °F - 55.4 °F 92% 29.71 in 4.0 mi WSW 9.2 mph - 0.37 in Rain Heavy Rain
8:55 AM 47.8 °F - 45.1 °F 90% 29.74 in 4.0 mi WNW 25.3 mph 31.1 mph 0.44 in Rain Light Rain
9:15 AM 45.9 °F 38.3 °F 43.7 °F 92% 29.75 in 5.0 mi WNW 19.6 mph 23.0 mph 0.01 in Rain Light Rain
9:35 AM 44.2 °F 36.7 °F 41.9 °F 91% 29.73 in 5.0 mi NW 17.3 mph 27.6 mph 0.04 in Rain Rain
9:55 AM 43.7 °F 36.6 °F 41.4 °F 91% 29.78 in 7.0 mi WNW 15.0 mph - 0.06 in Rain Light Rain
10:15 AM 43.3 °F 37.7 °F 41.0 °F 91% 29.74 in 4.0 mi NW 10.4 mph - 0.05 in Rain Heavy Rain
10:35 AM 42.8 °F 35.1 °F 40.3 °F 91% 29.78 in 7.0 mi WNW 16.1 mph 20.7 mph 0.08 in Rain Rain
10:55 AM 42.3 °F 35.5 °F 40.1 °F 92% 29.77 in 5.0 mi WNW 12.7 mph - 0.12 in Rain Rain
11:15 AM 41.0 °F 32.8 °F 38.5 °F 91% 29.78 in 10.0 mi WNW 16.1 mph - 0.01 in Rain Light Rain
11:35 AM 39.6 °F 29.7 °F 36.9 °F 90% 29.79 in 5.0 mi NW 20.7 mph 32.2 mph 0.04 in Rain Rain
12:15 PM 37.9 °F 28.2 °F 35.4 °F 91% 29.79 in 3.0 mi NW 18.4 mph 24.2 mph 0.03 in Rain Rain
12:35 PM 37.4 °F 28.5 °F 34.7 °F 90% 29.81 in 4.0 mi WNW 15.0 mph 18.4 mph 0.07 in Rain Rain
12:55 PM 36.9 °F 27.8 °F 34.3 °F 91% 29.80 in 3.0 mi WNW 15.0 mph 20.7 mph 0.10 in Rain Rain
1:15 PM 36.7 °F 27.2 °F 34.3 °F 91% 29.82 in 1.8 mi WNW 16.1 mph 19.6 mph 0.05 in Rain Light Rain
1:35 PM 36.1 °F 25.9 °F 33.8 °F 91% 29.82 in 1.8 mi WNW 18.4 mph - 0.10 in Rain Rain
1:55 PM 35.1 °F 24.1 °F 32.5 °F 91% 29.85 in 2.0 mi WNW 19.6 mph - 0.14 in Rain Rain
2:15 PM 34.7 °F 25.1 °F 32.2 °F 91% 29.84 in 2.5 mi WNW 15.0 mph - 0.03 in Rain Rain
2:35 PM 34.0 °F 23.0 °F 32.0 °F 92% 29.84 in 3.0 mi WNW 18.4 mph 24.2 mph 0.04 in Rain Rain
2:55 PM 33.6 °F 22.9 °F 31.8 °F 93% 29.85 in 4.0 mi NW 17.3 mph 25.3 mph 0.05 in Rain Light Rain
3:15 PM 33.4 °F 21.7 °F 31.8 °F 94% 29.86 in 7.0 mi WNW 20.7 mph - N/A   Overcast
3:35 PM 32.9 °F 21.0 °F 31.1 °F 93% 29.89 in 7.0 mi WNW 20.7 mph 25.3 mph N/A   Overcast
3:55 PM 32.9 °F 22.8 °F 30.9 °F 92% 29.92 in 3.0 mi WNW 15.0 mph - N/A   Overcast
4:15 PM 32.5 °F 21.5 °F 30.7 °F 93% 29.92 in 5.0 mi WNW 17.3 mph - N/A   Overcast
4:35 PM 32.0 °F 19.5 °F 29.8 °F 92% 29.93 in 10.0 mi NW 21.9 mph 27.6 mph N/A   Overcast
4:55 PM 32.0 °F 19.5 °F 29.7 °F 91% 29.95 in 10.0 mi WNW 21.9 mph 27.6 mph N/A   Overcast
5:15 PM 32.0 °F 20.5 °F 29.1 °F 89% 29.97 in 10.0 mi WNW 18.4 mph - N/A   Overcast
5:35 PM 32.0 °F 20.8 °F 28.4 °F 87% 29.97 in 10.0 mi WNW 17.3 mph 21.9 mph N/A   Overcast
5:55 PM 32.4 °F 20.9 °F 28.4 °F 85% 29.94 in 10.0 mi WNW 18.4 mph 25.3 mph N/A   Overcast
6:15 PM 32.2 °F 21.1 °F 28.2 °F 85% 29.98 in 10.0 mi WNW 17.3 mph 25.3 mph N/A   Overcast
6:35 PM 32.4 °F 22.1 °F 27.9 °F 83% 30.00 in 10.0 mi WNW 15.0 mph 21.9 mph N/A   Overcast
6:55 PM 32.2 °F 20.0 °F 27.0 °F 81% 30.02 in 10.0 mi WNW 20.7 mph - N/A   Overcast
7:15 PM 32.2 °F 20.0 °F 25.9 °F 78% 30.01 in 10.0 mi WNW 20.7 mph 27.6 mph N/A   Overcast
7:35 PM 32.0 °F 20.8 °F 25.7 °F 78% 30.00 in 10.0 mi NW 17.3 mph 24.2 mph N/A   Mostly Cloudy
7:55 PM 31.6 °F 18.4 °F 24.1 °F 74% 30.04 in 10.0 mi WNW 24.2 mph 31.1 mph N/A   Mostly Cloudy
8:15 PM 30.9 °F 19.4 °F 23.9 °F 75% 30.04 in 10.0 mi NW 17.3 mph 28.8 mph N/A   Scattered Clouds
8:35 PM 30.6 °F 19.0 °F 23.5 °F 75% 30.05 in 10.0 mi WNW 17.3 mph 25.3 mph N/A   Clear
8:55 PM 30.2 °F 18.1 °F 22.6 °F 73% 30.06 in 10.0 mi WNW 18.4 mph 25.3 mph N/A   Clear
9:15 PM 29.8 °F 18.0 °F 21.9 °F 72% 30.07 in 10.0 mi WNW 17.3 mph 25.3 mph N/A   Clear
9:35 PM 29.3 °F 17.3 °F 21.9 °F 74% 30.07 in 10.0 mi WNW 17.3 mph 21.9 mph N/A   Clear
9:55 PM 29.1 °F 17.1 °F 21.9 °F 74% 30.08 in 10.0 mi WNW 17.3 mph - N/A   Clear
10:15 PM 28.9 °F 17.7 °F 21.2 °F 73% 30.08 in 10.0 mi WNW 15.0 mph - N/A   Clear
10:35 PM 28.6 °F 16.8 °F 21.0 °F 73% 30.09 in 10.0 mi WNW 16.1 mph 21.9 mph N/A   Clear
10:55 PM 28.4 °F 15.1 °F 20.1 °F 71% 30.10 in 10.0 mi WNW 20.7 mph 25.3 mph N/A   Clear
11:15 PM 28.0 °F 19.3 °F 21.2 °F 76% 30.10 in 10.0 mi WNW 9.2 mph - N/A   Scattered Clouds
11:35 PM 27.5 °F 16.8 °F 20.3 °F 74% 30.12 in 10.0 mi WNW 12.7 mph 20.7 mph N/A   Scattered Clouds
11:55 PM 27.0 °F 14.7 °F 19.0 °F 72% 30.12 in 10.0 mi WNW 16.1 mph 23.0 mph N/A   Clear